Location: College Rock
(37.2713°N, 119.1740°W)
Time: 04:17:33
(UTC+00:00)

SL-14 R/B - Pass Details

Date: 29 October 2020
Orbit: 518 x 555 km, 82.4° (Epoch: 23 November)

Event Time Altitude Azimuth Distance (km) Brightness Sun altitude
Exits shadow 13:02:42 24° 309° (NW) 1,157 4.5 -15.7°
Drops below altitude 10° 13:05:09 10° 343° (NNW) 1,832 5.7 -15.2°
Sets 13:07:35 0° 355° (N) 2,735 6.8 -14.7°
